www.pogodaiklimat.ru

Погода и климат >> Архив погоды >> Индонезия >> Чилачап


ПОГОДА в Чилачапе

  • Прогноз погоды в Чилачапе
  • Монитор погоды в Чилачапе

АРХИВ ПОГОДЫ в Чилачапе

Время (UTC), дата Ветер
(напр.,м/с)
 
Видим.   Явления Облачность Т
(С)
Тd
(С)
f
(%)
Тe
(С)
Тes
(С)
Комфортность P
(гПа)
Po
(гПа)
Тmin
(С)
Tmax
(С)
R
(мм)
R24
(мм)
S
(см)
18 14.09 В 2 8000 м 4/1 600 м
[Sc Ac trans Ci fib]
+24.0 +21.7 87 +31 +31 очень
душно
1012.9 1012.1
21 14.09 В 2 8000 м 4/3 600 м
[Sc Ac trans Ci fib]
+23.6 +22.0 91 +30 +30 очень
душно
1012.7 1012.0
00 15.09 штиль 0 9000 м 8/5 500 м
[Cu med, cong As trans Ci fib]
+23.8 +21.2 85 +30 +31 очень
душно
1014.1 1013.4 +21.6
03 15.09 ЮВ 3 10 км 5/4 600 м
[Cu med, cong As trans Ci fib]
+26.8 +22.3 76 +35 +44 очень
душно
1014.2 1013.4
06 15.09 ЮВ 5 10 км 3/1 600 м
[Cu hum Ac trans Ci fib]
+28.0 +22.4 72 +37 +46 очень
душно
1011.5 1010.8
09 15.09 ЮВ 3 9000 м 1/1 600 м
[Sc]
+27.2 +22.7 76 +36 +39 очень
душно
1010.1 1009.4
12 15.09 В 3 7000 м 6/4 600 м
[Sc Ac trans Ci fib]
+24.8 +22.3 86 +32 +32 очень
душно
1011.9 1011.2 +28.4
15 15.09 В 2 7000 м 3/3 600 м
[Sc]
+24.7 +22.0 85 +32 +32 очень
душно
1012.8 1012.1
18 15.09 В 2 6000 м 8/5 600 м
[Sc As trans Ci fib]
+24.2 +22.2 89 +31 +31 очень
душно
1011.9 1011.1
21 15.09 В 2 6000 м 8/5 600 м
[Sc As trans Ci fib]
+23.8 +22.2 91 +31 +31 очень
душно
1011.4 1010.7
00 16.09 ЮВ 2 8000 м 9/4 600 м
[Sc Ac As Ci fib]
+24.2 +22.2 89 +31 +32 очень
душно
1012.8 1012.1 +23.6
03 16.09 ЮВ 3 10 км 4/1 600 м
[Cu med, cong As trans Ci fib]
+27.6 +22.0 72 +36 +48 очень
душно
1012.6 1011.9
06 16.09 Ю 2 10 км 1/1 600 м
[Sc As trans Ci fib]
+29.2 +21.6 64 +37 +55 опасность
солнечного
удара
1010.2 1009.5
09 16.09 В 3 9000 м 6/4 600 м
[Sc As trans Ci fib]
+26.6 +23.0 81 +36 +37 очень
душно
1009.9 1009.2
12 16.09 В 3 8000 м 8/5 600 м
[Sc As trans Ci fib]
+24.8 +22.8 89 +33 +33 очень
душно
1011.8 1011.1 +29.6
15 16.09 В 3 7000 м 5/1 600 м
[Sc As trans]
+24.5 +22.5 89 +32 +32 очень
душно
1013.3 1012.6
18 16.09 В 3 7000 м 3/1 600 м
[Sc Ci fib]
+23.9 +22.3 91 +31 +31 очень
душно
1012.8 1012.1
21 16.09 В 3 7000 м 3/1 600 м
[Sc Cs]
+23.6 +21.9 90 +30 +30 очень
душно
1012.6 1011.9
00 17.09 В 2 8000 м 5/1 600 м
[Sc Ac trans Ci fib]
+24.0 +21.9 88 +31 +32 очень
душно
1014.2 1013.5 +23.4
03 17.09 В 3 10 км 3/1 600 м
[Cu hum As trans Ci fib]
+26.3 +22.4 79 +34 +47 очень
душно
1014.5 1013.8
06 17.09 ЮВ 3 10 км 4/0
[Ci fib]
+27.8 +22.2 72 +36 +51 опасность
солнечного
удара
1011.6 1010.9
09 17.09 ЮВ 4 10 км 4/3 600 м
[Cu med, cong As trans Ci fib]
+26.4 +22.8 81 +35 +37 очень
душно
1011.6 1010.9
12 17.09 ЮВ 4 6000 м 8/5 600 м
[Cu Sc As trans Ci fib]
+25.0 +23.0 89 +33 +33 очень
душно
1013.7 1013.0 +28.6
15 17.09 В 3 6000 м 8/5 600 м
[Cu Sc As trans Ci fib]
+24.6 +22.9 90 +33 +33 очень
душно
1015.0 1014.3
18 17.09 В 3 6000 м 4/4 600 м
[Sc]
+24.0 +22.6 92 +31 +31 очень
душно
1014.2 1013.5
21 17.09 В 3 6000 м 5/5 600 м
[Sc]
+23.6 +21.9 90 +30 +30 очень
душно
1013.9 1013.0
00 18.09 В 3 8000 м 1/1 600 м
[Cu hum Ci fib]
+24.4 +21.8 85 +31 +33 очень
душно
1015.5 1014.8 +23.4
03 18.09 В 3 10 км 3/1 600 м
[Cu hum As trans Ci fib]
+27.4 +21.0 68 +34 +46 очень
душно
1015.8 1015.0
06 18.09 ЮВ 3 10 км 1/1 600 м
[Cu hum]
+27.5 +22.5 74 +36 +51 опасность
солнечного
удара
1013.5 1012.7
09 18.09 ЮВ 3 10 км 1/1 600 м
[Cu hum]
+26.8 +22.3 76 +35 +38 очень
душно
1012.7 1012.0
12 18.09 В 2 10 км 4/3 600 м
[Sc Ci fib]
+24.6 +22.8 90 +33 +33 очень
душно
1014.5 1013.8 +28.2
15 18.09 В 2 8000 м 1/1 600 м
[Sc]
+24.2 +22.2 89 +31 +31 очень
душно
1015.5 1014.7
18 18.09 штиль 0 6000 м 4/4 600 м
[Cu hum As trans Ci fib]
+23.8 +22.1 90 +31 +31 очень
душно
1013.7 1013.0
21 18.09 ЮВ 2 6000 м 8/5 600 м
[Cu med, cong As trans Ci fib]
+24.0 +22.0 89 +31 +31 очень
душно
1014.1 1013.3
00 19.09 В 3 8000 м 6/3 600 м
[Cu med, cong As trans Ci fib]
+24.9 +23.5 92 +34 +35 очень
душно
1015.6 1014.9 +23.6
03 19.09 В 5 10 км 5/1 600 м
[Cu med, cong As trans Ci fib]
+27.4 +21.6 71 +35 +42 очень
душно
1015.9 1015.2
06 19.09 В 4 10 км 4/1 600 м
[Cu med, cong As trans Ci fib]
+27.9 +21.8 69 +36 +47 очень
душно
1013.2 1012.5
09 19.09 ЮВ 4 9000 м 3/1 600 м
[Cu med, cong As trans Ci fib]
+26.8 +21.2 71 +34 +36 очень
душно
1012.5 1011.8
12 19.09 В 2 7000 м 5/4 600 м
[Sc As trans Ci fib]
+24.4 +22.4 89 +32 +32 очень
душно
1013.8 1013.0 +27.9
15 19.09 В 2 7000 м 6/4 600 м
[Sc As trans Ci fib]
+24.0 +22.0 89 +31 +31 очень
душно
1014.8 1014.1
18 19.09 В 3 6000 м 8/4 600 м
[Cu hum As trans Ci fib]
+23.8 +21.9 89 +31 +31 очень
душно
1013.8 1013.1
21 19.09 В 3 6000 м 9/3 600 м
[Cu hum As trans Ci fib]
+23.2 +20.9 87 +31 +31 очень
душно
1013.4 1012.7
00 20.09 В 1 8000 м 3/1 600 м
[Sc As trans Ci fib]
+23.6 +20.8 84 +29 +32 душно 1014.7 1014.0 +22.5
03 20.09 ЮВ 4 10 км 3/1 600 м
[Sc As trans Ci fib]
+27.3 +21.2 69 +34 +45 очень
душно
1014.9 1014.2
06 20.09 ЮВ 4 10 км 4/3 600 м
[Sc As trans Ci fib]
+28.1 +22.4 71 +37 +45 очень
душно
1012.5 1011.8
09 20.09 ЮВ 4 10 км 5/4 600 м
[Sc As trans Ci fib]
+27.0 +22.8 78 +36 +38 очень
душно
1011.7 1011.0
12 20.09 В 2 6000 м 9/6 600 м
[Sc As trans Ci fib]
+25.6 +22.8 85 +34 +34 очень
душно
1013.4 1012.7 +28.4
15 20.09 штиль 0 6000 м 8/5 600 м
[Sc As trans Ci fib]
+24.8 +22.5 87 +32 +32 очень
душно
1014.4 1013.7
18 20.09 ЮВ 2 6000 м 4/1 600 м
[Sc As trans Ci fib]
+24.2 +22.5 90 +32 +32 очень
душно
1013.3 1012.6
21 20.09 ЮВ 2 6000 м 6/3 600 м
[Sc Ac trans Ci fib]
+24.0 +22.3 90 +31 +31 очень
душно
1013.4 1012.7
00 21.09 В 1 8000 м 9/8 600 м
[Cu Sc Ac trans Ci fib]
+24.2 +21.9 87 +31 +32 очень
душно
1014.6 1013.8 +23.6
03 21.09 В 3 10 км 4/3 600 м
[Cu med, cong As trans Ci fib]
+27.0 +23.0 79 +36 +46 очень
душно
1015.0 1014.3
06 21.09 ЮВ 4 10 км 4/1 600 м
[Cu hum As trans Ci fib]
+27.7 +22.8 75 +37 +47 очень
душно
1012.8 1012.1
09 21.09 ЮВ 4 10 км 6/3 600 м
[Cu hum Ac trans Ci fib]
+26.7 +23.2 81 +36 +38 очень
душно
1011.9 1011.2
12 21.09 В 3 7000 м 5/3 600 м
[Cu hum As op Ci fib]
+24.6 +22.9 90 +33 +33 очень
душно
1013.3 1012.6 +28.6

 

Местоположение метеостанции Чилачап (Индонезия): широта -7.73 долгота 109.01 высота над уровнем моря 6 м.

В архиве по умолчанию представлена погода в Чилачапе за последнюю неделю. Архивные данные за месяц целиком и за предыдущие месяцы, начиная с января 2011 года, Вы можете получить, выбрав интересующий диапазон дат из раскрывающегося списка и нажав кнопку "Ввод!".


*Определитесь, кто Вы:
робот инопланетянин человек

Внимание! Время в таблицах - всемирное. Для получения местного времени необходимо прибавить поправку, которая равна 7 ч.

Смотрите также архив погоды в соседних городах и на ближайших метеорологических станциях:

Погода в Тегале (Индонезия) (99 км)
Погода в Сиребоне (Индонезия) (137 км)
Погода в Аэропорту Ахмад Яни (Индонезия) (173 км)
Погода в Семаранге (Индонезия) (176 км)
Погода в Бандунге (Индонезия) (183 км)
Погода в Цитеко (Индонезия) (257 км)
Погода в Джакарте (Индонезия) (296 км)
Погода в Джакарта порту (Индонезия) (298 км)
Погода в Чуруге (Индонезия) (309 км)
Погода в Аэропорту Сукарно-Хатта (Индонезия) (316 км)

Пояснения к столбцам:

Ветер - указаны скорость ветра в м/с - средняя за 10 мин, порывы в срок и между сроками (в фигурных скобках) и направление, откуда дует ветер: С - северный, СВ - северо-восточный, В - восточный, ЮВ - юго-восточный, Ю - южный, ЮЗ - юго-западный, З - западный, СЗ - северо-западный.
Видимость - горизонтальная дальность видимости в метрах или километрах. При видимости от 1 до 10 км при отсутствии осадков обычно наблюдается дымка, при ухудшении видимости до 1 км и менее - туман. В сухую погоду видимость может ухудшаться дымом, пылью или мглою.
Явления - указаны атмосферные явления, наблюдавшиеся в срок или в последний час перед сроком; фигурными скобками обозначены явления, наблюдавшиеся между сроками (за 1-3 часа до срока); квадратными скобками обозначены град или гололедные отложения с указанием их диаметра в мм.
Облачность - указаны через наклонную черту общая и нижняя облачность в баллах и высота нижней границы облаков в метрах; квадратными скобками обозначены формы облаков: Ci - перистые, Cs - перисто-слоистые, Cc - перисто-кучевые, Ac - высококучевые, As - высокослоистые, Sc - слоисто-кучевые, Ns - слоисто-дождевые, Cu - кучевые, Cb - кучево-дождевые. Подробнее классификацию облаков см. в Атласе облаков (PDF).
T - Температура воздуха - температура, измеренная на высоте 2 м над землей.
Td - Температура точки росы - температура, при понижении до которой содержащийся в воздухе водяной пар достигнет насыщения.
f - Относительная влажность воздуха - влажноcть воздуха, измеренная на высоте 2 м над землей.
Te - Эффективная температура - температура, которую ощущает одетый по сезону человек в тени. Характеристика душности погоды. При расчете учитывается влияние влажности воздуха и скорости ветра на теплоощущения человека.
Tes - Эффективная температура на солнце - температура, которую ощущает человек, с поправкой на солнечный нагрев. Характеристика знойности погоды. Зависит от высоты солнца над горизонтом, облачности и скорости ветра. Ночью, в пасмурную погоду, а также при ветре 12 м/с и более поправка равна нулю.
P - Атмосферное давление - приведенное к уровню моря атмосферное давление.
Po - Атмосферное давление - измеренное на уровне метеостанции атмосферное давление.
Tmin - Минимальная температура - минимум температуры воздуха на высоте 2 м над землей.
Tmax - Максимальная температура - максимум температуры воздуха на высоте 2 м над землей.
R - Количество осадков - Количество выпавших осадков за период времени, мм. При наведении курсора мыши на число - период времени, за который выпало указанное количество осадков.
R24 - Количество осадков - Количество выпавших осадков за 24 часа, мм.
S - Снежный покров - Высота снежного покрова, см. При наведении курсора мыши на число - состояние снежного покрова и степень покрытия местности в баллах.